Flag for Australia Weather past 2 weeks in Ballarat, Victoria, Australia

Now
56 °F

Cool.


Feels Like: 53 °F
Forecast: 42 / 51 °F
Wind: 13 mph from North

Location: Sheoaks Aws

Current Time: May 28, 2015 at 10:18:31 AM

Latest Report: May 28, 2015 at 9:00 AM


Visibility: N/A

Pressure: 30.01 "Hg

Humidity: 64%

Dew point: 44 °F

Location of BallaratLocation

Historic Weather in Ballarat — Graph

°F

Ballarat temperature yesterday

Maximum temperature yesterday: 63 °F (at 2:00 PM)
Minimum temperature yesterday: 54 °F (at 12:00 AM)
Average temperature yesterday: 58 °F

Past Weeks' High & Low Weather Summary

 TemperatureHumidityPressure
High66 °F (May 17, 2:00 PM)100% (May 14, 11:00 PM)30.63 "Hg (May 14, 11:00 PM)
Low35 °F (May 24, 8:00 AM)48% (May 18, 2:00 PM)29.73 "Hg (May 20, 3:00 AM)
Average51 °F80%30.31 "Hg
* Reported May 13 9:00 AM — May 28 9:00 AM, Ballarat, Weather by CustomWeather, © 2015

Note: Actual official high and low records may vary slightly from our data, if they occured in-between our weather recording intervals... More about our weather records

Advertising

Ballarat weather history for previous 24 hours

 ConditionsComfort  
Time TempWeatherWind HumidityBarometerVisibility
9:00 AM
Thu, May 28
56 °FCool.13 mph64%30.01 "HgN/A
8:00 AM55 °FCool.12 mph67%30.01 "HgN/A
6:00 AM55 °FCool.10 mph72%30.00 "HgN/A
5:00 AM55 °FCool.12 mph73%30.01 "HgN/A
3:00 AM55 °FCool.10 mph71%30.02 "HgN/A
2:00 AM54 °FCool.8 mph71%30.03 "HgN/A
12:00 AM56 °FCool.9 mph70%30.06 "HgN/A
11:00 PM
Wed, May 27
57 °FCool.12 mph71%30.06 "HgN/A
9:00 PM55 °FCool.9 mph76%30.06 "HgN/A
8:00 PM56 °FCool.10 mph74%30.06 "HgN/A
6:00 PM58 °FCool.9 mph70%30.06 "HgN/A
5:00 PM60 °FCool.8 mph65%30.05 "HgN/A
3:00 PM63 °FMild.14 mph58%30.03 "HgN/A
2:00 PM63 °FMild.14 mph58%30.04 "HgN/A
12:00 PM61 °FCool.14 mph63%30.08 "HgN/A
11:00 AM58 °FCool.12 mph69%30.11 "HgN/A
Weather by CustomWeather, © 2015

See weather overviewHow to use our weather pages